Location: ASU Dark Sky Observatory
(36.2504°N, 81.4125°W)
Time: 04:28:04
(UTC-04:00)

ETS-7 - Visible Passes

Search period start: 31 March 2015 00:00
Search period end: 10 April 2015 00:00
Orbit: 368 x 371 km, 35.0° (Epoch: 30 March)

Date Brightness Start Highest point End Pass type
(mag) Time Alt. Az. Time Alt. Az. Time Alt. Az.
31 Mar 4.1 05:14:53 25° E 05:14:53 25° E 05:16:22 10° E visible
01 Apr 1.9 05:44:43 68° SSW 05:44:51 70° S 05:47:54 10° E visible
02 Apr 2.2 06:14:29 22° W 06:16:14 53° S 06:19:14 10° ESE visible
03 Apr 4.1 05:12:21 24° ESE 05:12:21 24° ESE 05:13:44 10° ESE visible
04 Apr 2.6 05:42:03 41° S 05:42:03 41° S 05:44:44 10° ESE visible
05 Apr 3.6 06:11:46 18° SW 06:12:42 20° SSW 06:15:03 10° SSE visible
06 Apr 5.0 05:09:40 10° SE 05:09:40 10° SE 05:09:42 10° SE visible
